[[{"header":{"parameterUnit":"m.s-1","parameterCategory":1,"la1":30.2991,"la2":30.254,"lo1":-89.0895,"lo2":-89.0444,"dy":0.0017,"dx":0.0017,"nx":28,"ny":28,"refTime":"2025-08-19T09:00:00:Z","depth":0,"parameterNumber":2,"parameterNumberName":"U-component_of_WINDS"},"data":[0,0,0,0,0,0,0,0,0,0,0,0,0,0,0,0,0,0,0,0,0,0,0,0,0,0,0,0,0,0,0,0,0,0,0,0,0,0,0,0,0,0,0,0,0,0,0,0,0,0,0,0,0,0,0,0,0,0,-1.8821,-1.8822,0,-1.8878,-1.8878,-1.8879,-1.8848,-1.8846,-1.8845,-1.8843,-1.8902,-1.8905,-1.8908,0,0,0,0,0,0,0,0,0,0,0,0,0,-1.8687,-1.869,-1.8821,-1.8822,-1.8822,-1.8878,-1.8878,-1.8879,-1.8848,-1.8846,-1.8844,-1.8842,-1.8901,-1.8905,-1.8908,0,0,0,0,0,0,0,0,0,0,0,0,0,-1.8745,-1.8691,-1.8821,-1.8814,-1.8813,-1.8877,-1.8878,-1.8879,-1.8848,-1.8846,-1.8844,-1.8841,-1.89,-1.8904,-1.8909,-1.8983,0,0,-1.8922,-1.8924,0,0,0,0,0,0,0,0,-1.8742,-1.875,-1.8814,-1.8814,-1.8814,-1.8853,-1.8853,-1.8914,-1.8849,-1.8835,-1.8843,-1.884,-1.8888,-1.8893,-1.8909,-1.8986,-1.8989,-1.8923,-1.8926,-1.8928,-1.8929,0,0,0,0,0,0,0,-1.8738,-1.8747,-1.8843,-1.8815,-1.8815,-1.8808,-1.8813,-1.8864,-1.8874,-1.8836,-1.8834,-1.8841,-1.8887,-1.8905,-1.891,-1.899,-1.8923,-1.8927,-1.893,-1.8931,-1.9132,-1.9134,0,0,0,0,0,0,-1.8734,-1.8744,-1.8842,-1.8845,-1.8771,-1.8812,-1.8818,-1.8843,-1.8873,-1.8876,-1.8843,-1.8839,-1.8898,-1.8905,-1.8912,-1.9002,-1.8928,-1.8932,-1.8934,-1.9129,-1.9132,-1.9135,0,0,0,0,0,0,-1.8731,-1.8743,-1.8839,-1.8794,-1.8806,-1.8817,-1.8845,-1.8845,-1.8863,-1.8878,-1.888,-1.8859,-1.8896,-1.8906,-1.8966,-1.9003,-1.8934,-1.8938,-1.9126,-1.913,-1.9134,-1.9182,0,0,0,0,0,0,-1.8728,-1.8742,-1.877,-1.8795,-1.8808,-1.8892,-1.8847,-1.8848,-1.887,-1.8866,-1.8894,-1.8896,-1.8895,-1.8959,-1.897,-1.9008,-1.8941,-1.9123,-1.9128,-1.9133,-1.9177,-1.9187,-1.9195,0,0,0,0,0,-1.8723,-1.8782,-1.8772,-1.8784,-1.8844,-1.8894,-1.8902,-1.89,-1.8873,-1.8902,-1.8912,-1.8895,-1.8998,-1.8966,-1.8978,-1.9018,-1.912,-1.9126,-1.9132,-1.9173,-1.9185,-1.9195,0,0,0,0,0,0,-1.8761,-1.8785,-1.8774,-1.8843,-1.8867,-1.8889,-1.8925,-1.8913,-1.8945,-1.894,-1.8936,-1.8942,-1.9005,-1.9018,-1.8982,-1.9092,-1.9055,-1.9064,-1.9081,-1.9093,-1.9102,-1.9098,-1.8945,0,0,0,0,0,-1.8778,-1.8817,-1.8835,-1.8894,-1.8906,-1.8914,-1.8936,-1.8932,-1.8957,-1.8967,-1.8982,-1.9007,-1.9045,-1.907,-1.9105,-1.9179,-1.9184,-1.9212,-1.9221,-1.9229,-1.9236,-1.9276,-1.9289,-1.9154,-1.9154,-1.9154,0,0,-1.8812,-1.883,-1.8854,-1.8902,-1.892,-1.8961,-1.8922,-1.8967,-1.8997,-1.8974,-1.9031,-1.9043,-1.9071,-1.9139,-1.9169,-1.9151,-1.9275,-1.9236,-1.9242,-1.9245,-1.9283,-1.9296,-1.9307,-1.9158,-1.9158,-1.9157,0,0,-1.8895,-1.8912,-1.8963,-1.8982,-1.901,-1.9015,-1.9027,-1.9052,-1.9059,-1.9117,-1.91,-1.9136,-1.9202,-1.9222,-1.9241,-1.9333,-1.9319,-1.9345,-1.9393,-1.9432,-1.9443,-1.9452,-1.9485,-1.9497,-1.9353,-1.9353,-1.9353,0,-1.8934,-1.8994,-1.8991,-1.9037,-1.9058,-1.9039,-1.9091,-1.911,-1.9148,-1.9164,-1.9143,-1.9225,-1.9242,-1.9314,-1.9337,-1.9353,-1.9367,-1.9342,-1.9442,-1.9451,-1.946,-1.9491,-1.9503,-1.9356,-1.9355,-1.9355,-1.9355,0,-1.9041,-1.9083,-1.9121,-1.9158,-1.9184,-1.9233,-1.9237,-1.9264,-1.9259,-1.9266,-1.9325,-1.9346,-1.9385,-1.9402,-1.9397,-1.9474,-1.9462,-1.9442,-1.9404,-1.9476,-1.9505,-1.9517,-1.936,-1.9359,-1.9358,-1.9357,0,0,-1.9149,-1.9185,-1.9199,-1.9216,-1.9245,-1.9278,-1.9326,-1.9365,-1.9388,-1.9416,-1.9456,-1.9512,-1.9494,-1.9516,-1.9513,-1.9547,-1.9619,-1.9523,-1.9523,-1.954,-1.9705,-1.972,-1.9734,-1.961,-1.9612,-1.9614,-1.9703,0,-1.9235,-1.9318,-1.9317,-1.9394,-1.9433,-1.9416,-1.9458,-1.9481,-1.949,-1.9524,-1.9534,-1.9573,-1.9546,-1.9559,-1.9592,-1.9603,-1.9652,-1.9597,-1.9648,-1.965,-1.9641,-1.975,-1.9766,-1.9848,-1.9715,-1.9717,-1.9718,0,-1.9345,-1.9376,-1.9457,-1.9482,-1.9498,-1.9536,-1.9571,-1.9605,-1.9631,-1.9635,-1.966,-1.9652,-1.9701,-1.9663,-1.9731,-1.9694,-1.9715,-1.9724,-1.9727,-1.9731,-1.9688,-1.9757,-1.9875,-1.9887,-1.9736,-1.9735,-1.9733,0,-1.9415,-1.9478,-1.9534,-1.9549,-1.958,-1.9607,-1.9621,-1.9645,-1.9668,-1.97,-1.9715,-1.9752,-1.9772,-1.9801,-1.9804,-1.9776,-1.9873,-1.9835,-1.9878,-1.9878,-1.9899,-1.9897,-2.0021,-1.9913,-1.9913,-1.9912,-1.9912,0,-1.951,-1.9561,-1.9567,-1.9602,-1.9658,-1.9656,-1.9712,-1.9724,-1.9746,-1.9783,-1.9771,-1.9806,-1.9808,-1.9844,-1.9847,-1.9903,-1.9913,-1.9917,-1.9917,-1.9918,-1.9918,-1.9931,-1.9926,-1.9916,-1.9915,-1.9914,-1.9914,0,-1.9599,-1.9604,-1.9665,-1.9689,-1.9696,-1.9737,-1.9757,-1.9791,-1.9798,-1.9846,-1.9857,-1.9868,-1.9911,-1.9917,-1.9966,-1.9968,-2.0036,-2.003,-2.0027,-2.0026,-2.0069,-2.0065,-2.0206,-2.0224,-2.0104,-2.0105,-2.0106,0,-1.9659,-1.9697,-1.9725,-1.9749,-1.9764,-1.9803,-1.9827,-1.9827,-1.9853,-1.9886,-1.9916,-1.9957,-1.999,-2.0059,-2.0072,-2.011,-2.0105,-2.0152,-2.0111,-2.0111,-2.0106,-2.0103,-2.0107,-2.016,-2.0161,-2.0162,-2.0163,0,-1.9765,-1.9766,-1.98,-1.9837,-1.9865,-1.9894,-1.9921,-1.9941,-1.9945,-1.9974,-2.0017,-2.0043,-2.0094,-2.0135,-2.0173,-2.0188,-2.0177,-2.0176,-2.0188,-2.0189,-2.0186,-2.0188,-2.0049,-2.0173,-2.0172,-2.0171,-2.017,-2.017,-1.9841,-1.9874,-1.9899,-1.9938,-1.9958,-1.9984,-2.0017,-2.0028,-2.0064,-2.0105,-2.0103,-2.0151,-2.0177,-2.0227,-2.0244,-2.0282,-2.0267,-2.0284,-2.0288,-2.0293,-2.0297,-2.018,-2.0289,-2.0289,-2.0289,-2.0288,-2.0288,0,-1.9946,-1.9961,-1.9997,-2.0035,-2.0066,-2.0053,-2.0082,-2.0109,-2.0151,-2.0176,-2.0209,-2.0258,-2.0299,-2.0315,-2.0355,-2.0382,-2.0378,-2.0392,-2.039,-2.0394,-2.0308,-2.0294,-2.0395,-2.0395,-2.0395,-2.0395,-2.0395,-2.0395,-2.0005,-2.006,-2.0065,-2.0131,-2.0146,-2.0192,-2.021,-2.0234,-2.0254,-2.031,-2.0343,-2.0353,-2.0376,-2.0417,-2.0453,-2.0457,-2.0472,-2.0489,-2.0491,-2.0411,-2.04,-2.0389,-2.0376,-2.0492,-2.0493,-2.0573,-2.0574,-2.0574]},{"header":{"parameterUnit":"m.s-1","parameterCategory":1,"la1":30.2991,"la2":30.254,"lo1":-89.0895,"lo2":-89.0444,"dy":0.0017,"dx":0.0017,"nx":28,"ny":28,"refTime":"2025-08-19T09:00:00:Z","depth":0,"parameterNumber":3,"parameterNumberName":"V-component_of_WINDS"},"data":[0,0,0,0,0,0,0,0,0,0,0,0,0,0,0,0,0,0,0,0,0,0,0,0,0,0,0,0,0,0,0,0,0,0,0,0,0,0,0,0,0,0,0,0,0,0,0,0,0,0,0,0,0,0,0,0,0,0,2.2586,2.2586,0,2.2551,2.2551,2.255,2.2506,2.2506,2.2505,2.2504,2.2468,2.2468,2.2467,0,0,0,0,0,0,0,0,0,0,0,0,0,2.2616,2.2615,2.2586,2.2586,2.2586,2.2551,2.255,2.255,2.2506,2.2506,2.2505,2.2504,2.2468,2.2468,2.2467,0,0,0,0,0,0,0,0,0,0,0,0,0,2.2594,2.2615,2.2587,2.256,2.2557,2.2551,2.255,2.255,2.2507,2.2506,2.2505,2.2504,2.2468,2.2468,2.2467,2.2485,0,0,2.2466,2.2465,0,0,0,0,0,0,0,0,2.2595,2.2593,2.2564,2.2562,2.2558,2.2532,2.2547,2.2528,2.2507,2.2526,2.2504,2.2503,2.249,2.2488,2.2483,2.2483,2.2482,2.2466,2.2465,2.2465,2.2465,0,0,0,0,0,0,0,2.2597,2.2594,2.2572,2.2564,2.256,2.2549,2.2545,2.2544,2.2514,2.2524,2.2521,2.2517,2.2488,2.2484,2.2482,2.2481,2.2466,2.2465,2.2465,2.2465,2.2491,2.2492,0,0,0,0,0,0,2.2602,2.2596,2.2574,2.2571,2.2575,2.2549,2.2545,2.2542,2.2514,2.2509,2.2518,2.2515,2.2485,2.2483,2.2481,2.2497,2.2465,2.2465,2.2464,2.249,2.2491,2.2492,0,0,0,0,0,0,2.2603,2.2601,2.2575,2.2583,2.2578,2.255,2.2547,2.2541,2.2537,2.251,2.2504,2.2519,2.2484,2.2481,2.2484,2.2496,2.2464,2.2464,2.2489,2.2491,2.2492,2.2533,0,0,0,0,0,0,2.2604,2.2601,2.2608,2.2583,2.2578,2.2579,2.2548,2.2541,2.2536,2.2532,2.2509,2.2504,2.2483,2.2485,2.2483,2.2494,2.2464,2.2488,2.249,2.2491,2.253,2.2536,2.254,0,0,0,0,0,2.2605,2.2621,2.2609,2.2606,2.2586,2.258,2.2577,2.2553,2.2537,2.2543,2.2526,2.2505,2.2495,2.2485,2.2483,2.2495,2.2487,2.2489,2.2491,2.2528,2.2535,2.254,0,0,0,0,0,0,2.2649,2.2618,2.2603,2.2612,2.2599,2.2572,2.2579,2.2561,2.2552,2.2548,2.2519,2.2514,2.2519,2.2507,2.2497,2.2509,2.2488,2.249,2.2516,2.2522,2.2527,2.2529,2.2463,0,0,0,0,0,2.2659,2.2657,2.263,2.264,2.2634,2.2608,2.2605,2.2587,2.2572,2.2566,2.2549,2.2535,2.2529,2.2525,2.2518,2.2529,2.2522,2.2536,2.2541,2.2545,2.2546,2.2549,2.2554,2.25,2.25,2.25,0,0,2.2681,2.2664,2.2664,2.2648,2.2636,2.2634,2.2604,2.2603,2.26,2.2566,2.2566,2.2553,2.2536,2.2542,2.2544,2.2532,2.256,2.2548,2.2551,2.255,2.2552,2.2557,2.2561,2.2501,2.2501,2.2501,0,0,2.2719,2.2707,2.2713,2.2701,2.2683,2.2665,2.2667,2.2643,2.2632,2.2633,2.2606,2.2603,2.2593,2.2581,2.2574,2.2606,2.2586,2.2605,2.263,2.2633,2.2637,2.2641,2.265,2.2655,2.2607,2.2607,2.2607,0,2.2748,2.2744,2.2718,2.2718,2.2711,2.268,2.2685,2.2675,2.2656,2.2652,2.2639,2.2625,2.2611,2.2613,2.2621,2.2617,2.2616,2.2607,2.2639,2.2642,2.2645,2.2654,2.2658,2.2609,2.2609,2.2609,2.2609,0,2.2779,2.2777,2.2784,2.2765,2.2759,2.2762,2.2736,2.2733,2.2716,2.27,2.2699,2.2682,2.2669,2.2669,2.2653,2.2668,2.2661,2.2645,2.2622,2.2653,2.2661,2.2664,2.2613,2.2612,2.2611,2.2611,0,0,2.2843,2.281,2.2812,2.2803,2.278,2.2777,2.2778,2.2766,2.2763,2.2751,2.275,2.2742,2.2726,2.2718,2.27,2.2703,2.2727,2.2685,2.2684,2.2692,2.274,2.2751,2.2756,2.2714,2.2714,2.2715,2.2741,0,2.2875,2.2875,2.2851,2.2857,2.2853,2.2824,2.2824,2.281,2.2795,2.2789,2.2772,2.2765,2.2746,2.274,2.2742,2.2724,2.2736,2.2722,2.2711,2.2711,2.2714,2.276,2.2772,2.2798,2.2744,2.2744,2.2745,0,2.2912,2.2901,2.2907,2.2883,2.288,2.2881,2.2867,2.2863,2.2845,2.2834,2.2824,2.2803,2.2802,2.2782,2.2778,2.2769,2.2763,2.2754,2.2754,2.2751,2.2729,2.2756,2.2805,2.2808,2.2749,2.2749,2.2749,0,2.2956,2.2942,2.2943,2.2936,2.2909,2.291,2.2898,2.288,2.2874,2.2862,2.2857,2.2845,2.2838,2.2829,2.2805,2.2794,2.2804,2.2782,2.2793,2.2793,2.2795,2.2795,2.2842,2.2795,2.2795,2.2795,2.2795,0,2.2993,2.2997,2.2962,2.2963,2.2966,2.2939,2.2943,2.2928,2.2912,2.2909,2.2883,2.288,2.285,2.2843,2.2825,2.2823,2.2821,2.281,2.2805,2.2812,2.2813,2.2806,2.2803,2.2796,2.2795,2.2795,2.2795,0,2.3041,2.3018,2.3017,2.2991,2.2984,2.2987,2.2965,2.2963,2.2946,2.2942,2.2939,2.2912,2.2903,2.2879,2.2864,2.2851,2.2854,2.2846,2.286,2.2856,2.2867,2.2865,2.291,2.2914,2.2866,2.2867,2.2867,0,2.3065,2.3067,2.3041,2.3037,2.3026,2.302,2.3013,2.2987,2.2981,2.2961,2.2962,2.295,2.294,2.2926,2.2905,2.2892,2.2882,2.2899,2.288,2.2886,2.288,2.2879,2.2878,2.2902,2.2903,2.2903,2.2904,0,2.311,2.3098,2.309,2.3077,2.3069,2.3058,2.3045,2.3043,2.3013,2.3007,2.2997,2.2989,2.2973,2.2961,2.2946,2.2933,2.2913,2.291,2.2911,2.2917,2.2924,2.2918,2.2869,2.2909,2.2908,2.2908,2.2908,2.2907,2.3145,2.3145,2.3126,2.3117,2.3105,2.3093,2.309,2.3072,2.3064,2.3048,2.3034,2.3025,2.3006,2.2983,2.2971,2.2963,2.2953,2.2956,2.2956,2.2956,2.2959,2.2927,2.2961,2.296,2.296,2.296,2.296,0,2.3187,2.3173,2.3165,2.3148,2.314,2.3123,2.3107,2.3102,2.3094,2.3079,2.3069,2.3057,2.3045,2.3023,2.3009,2.3006,2.2997,2.3004,2.3002,2.2999,2.297,2.2969,2.3011,2.3011,2.3011,2.3011,2.3011,2.3011,2.3208,2.3206,2.3192,2.3183,2.317,2.3161,2.3153,2.3142,2.3129,2.3117,2.3107,2.3092,2.3074,2.3058,2.3046,2.304,2.3035,2.3044,2.3035,2.3007,2.3002,2.2997,2.2996,2.3044,2.3044,2.3065,2.3065,2.3065]}]]